Precipitable_Water
0.66 0.64 0.62 0.62 0.63 0.65 0.66 0.68 0.68 0.67 0.64 0.62 0.61 0.59 0.58 0.61 0.64 0.64 0.66 0.67 0.66 0.67 0.69 0.68 0.68 0.65 0.58 0.39 0.34 0.41 0.58 0.71 0.70 0.63 0.53 0.47 0.41 0.37 0.35 0.36 0.35 0.31 0.32 0.34 0.33 0.33 0.34
0.65 0.64 0.64 0.62 0.61 0.60 0.60 0.59 0.58 0.57 0.58 0.59 0.61 0.61 0.59 0.56 0.56 0.57 0.57 0.58 0.60 0.63 0.66 0.69 0.69 0.69 0.56 0.36 0.47 0.50 0.55 0.53 0.53 0.57 0.53 0.51 0.45 0.44 0.40 0.40 0.36 0.36 0.33 0.34 0.32 0.31 0.33
0.62 0.63 0.63 0.61 0.59 0.57 0.57 0.56 0.56 0.56 0.55 0.55 0.54 0.55 0.58 0.59 0.57 0.55 0.50 0.52 0.59 0.63 0.60 0.64 0.67 0.66 0.50 0.41 0.45 0.51 0.51 0.47 0.54 0.51 0.42 0.46 0.49 0.46 0.45 0.39 0.42 0.39 0.32 0.33 0.28 0.28 0.29
0.59 0.59 0.59 0.59 0.59 0.59 0.59 0.56 0.55 0.53 0.53 0.52 0.52 0.52 0.51 0.58 0.61 0.56 0.50 0.49 0.46 0.49 0.59 0.58 0.62 0.56 0.35 0.50 0.51 0.46 0.44 0.45 0.44 0.50 0.53 0.56 0.58 0.51 0.45 0.46 0.42 0.37 0.36 0.27 0.23 0.27 0.32
0.57 0.56 0.57 0.58 0.57 0.57 0.57 0.57 0.55 0.55 0.54 0.54 0.54 0.52 0.51 0.51 0.54 0.58 0.57 0.47 0.41 0.46 0.53 0.60 0.51 0.42 0.24 0.42 0.38 0.51 0.68 0.57 0.58 0.43 0.52 0.63 0.59 0.51 0.48 0.40 0.35 0.36 0.30 0.27 0.20 0.28 0.32
0.57 0.54 0.54 0.56 0.56 0.56 0.55 0.55 0.54 0.53 0.57 0.60 0.58 0.61 0.60 0.54 0.47 0.49 0.57 0.49 0.46 0.54 0.49 0.51 0.56 0.34 0.25 0.17 0.31 0.49 0.70 0.68 0.56 0.44 0.46 0.52 0.49 0.42 0.42 0.39 0.28 0.31 0.31 0.27 0.21 0.25 0.33
0.55 0.57 0.54 0.55 0.55 0.54 0.52 0.52 0.51 0.51 0.58 0.63 0.67 0.68 0.66 0.63 0.52 0.49 0.46 0.37 0.35 0.31 0.44 0.29 0.34 0.29 0.25 0.36 0.48 0.46 0.50 0.55 0.55 0.44 0.34 0.46 0.36 0.31 0.37 0.40 0.39 0.36 0.33 0.27 0.29 0.29 0.32
0.55 0.54 0.52 0.50 0.51 0.52 0.51 0.50 0.49 0.50 0.53 0.58 0.67 0.69 0.72 0.72 0.66 0.60 0.52 0.35 0.40 0.49 0.26 0.32 0.29 0.32 0.31 0.35 0.26 0.31 0.46 0.36 0.39 0.35 0.36 0.34 0.28 0.37 0.40 0.41 0.40 0.38 0.34 0.29 0.28 0.29 0.32
0.49 0.51 0.48 0.50 0.49 0.48 0.48 0.46 0.48 0.51 0.55 0.54 0.55 0.61 0.65 0.73 0.67 0.58 0.45 0.47 0.61 0.62 0.36 0.31 0.30 0.28 0.26 0.25 0.19 0.15 0.27 0.35 0.31 0.31 0.33 0.27 0.29 0.36 0.36 0.37 0.36 0.37 0.34 0.31 0.25 0.27 0.36
0.50 0.47 0.47 0.46 0.46 0.46 0.46 0.44 0.48 0.50 0.52 0.52 0.54 0.58 0.63 0.66 0.51 0.50 0.38 0.61 0.63 0.65 0.22 0.16 0.19 0.26 0.29 0.28 0.22 0.23 0.23 0.18 0.27 0.24 0.30 0.31 0.33 0.33 0.34 0.33 0.38 0.31 0.38 0.33 0.26 0.26 0.23
0.52 0.46 0.48 0.45 0.44 0.44 0.44 0.43 0.48 0.50 0.50 0.53 0.55 0.58 0.62 0.63 0.48 0.44 0.57 0.65 0.61 0.50 0.07 0.11 0.18 0.34 0.34 0.21 0.27 0.30 0.31 0.21 0.13 0.18 0.21 0.24 0.29 0.31 0.30 0.35 0.40 0.35 0.39 0.32 0.28 0.28 0.31
0.50 0.50 0.46 0.45 0.45 0.44 0.43 0.42 0.46 0.48 0.51 0.53 0.53 0.59 0.65 0.63 0.58 0.58 0.57 0.59 0.54 0.20 0.08 0.09 0.21 0.26 0.27 0.25 0.23 0.32 0.31 0.29 0.25 0.19 0.20 0.21 0.32 0.33 0.33 0.38 0.41 0.42 0.37 0.32 0.31 0.33 0.26
0.49 0.47 0.46 0.46 0.46 0.44 0.41 0.39 0.41 0.50 0.53 0.54 0.57 0.63 0.64 0.66 0.44 0.64 0.62 0.48 0.23 0.14 0.15 0.12 0.19 0.22 0.20 0.23 0.25 0.24 0.25 0.21 0.16 0.13 0.15 0.22 0.23 0.30 0.36 0.32 0.37 0.37 0.32 0.23 0.23 0.25 0.23
0.48 0.49 0.49 0.46 0.44 0.44 0.42 0.42 0.40 0.49 0.54 0.55 0.56 0.65 0.67 0.69 0.69 0.66 0.54 0.32 0.15 0.18 0.17 0.19 0.21 0.23 0.18 0.20 0.24 0.26 0.22 0.20 0.23 0.19 0.15 0.13 0.13 0.21 0.31 0.32 0.32 0.34 0.32 0.25 0.21 0.22 0.26
0.46 0.46 0.47 0.46 0.46 0.44 0.44 0.43 0.42 0.47 0.54 0.57 0.58 0.61 0.62 0.67 0.70 0.62 0.41 0.20 0.16 0.21 0.25 0.21 0.18 0.15 0.17 0.23 0.23 0.25 0.24 0.21 0.25 0.26 0.16 0.14 0.14 0.23 0.25 0.30 0.34 0.35 0.30 0.36 0.32 0.35 0.27
0.43 0.46 0.46 0.44 0.44 0.45 0.43 0.43 0.44 0.50 0.56 0.60 0.54 0.52 0.52 0.72 0.75 0.56 0.33 0.18 0.21 0.29 0.30 0.26 0.16 0.19 0.14 0.18 0.21 0.24 0.27 0.33 0.30 0.31 0.31 0.25 0.17 0.26 0.30 0.32 0.32 0.32 0.40 0.31 0.34 0.23 0.21
0.43 0.42 0.40 0.42 0.42 0.42 0.44 0.47 0.52 0.55 0.57 0.63 0.54 0.41 0.56 0.71 0.71 0.43 0.21 0.21 0.25 0.30 0.32 0.26 0.23 0.20 0.21 0.18 0.19 0.22 0.26 0.36 0.38 0.35 0.38 0.31 0.27 0.24 0.28 0.27 0.26 0.30 0.30 0.36 0.37 0.32 0.23
0.40 0.42 0.43 0.43 0.44 0.46 0.50 0.54 0.55 0.56 0.60 0.61 0.49 0.31 0.61 0.68 0.36 0.36 0.24 0.28 0.30 0.32 0.34 0.31 0.32 0.28 0.24 0.24 0.20 0.20 0.23 0.33 0.45 0.43 0.36 0.37 0.25 0.20 0.22 0.34 0.38 0.34 0.32 0.35 0.31 0.29 0.33
0.48 0.48 0.51 0.53 0.56 0.57 0.57 0.58 0.60 0.61 0.63 0.56 0.40 0.40 0.63 0.58 0.26 0.27 0.32 0.30 0.31 0.29 0.33 0.34 0.31 0.33 0.33 0.25 0.20 0.21 0.24 0.36 0.42 0.45 0.45 0.48 0.29 0.18 0.19 0.25 0.34 0.33 0.37 0.38 0.39 0.40 0.32
0.61 0.63 0.65 0.67 0.67 0.65 0.65 0.65 0.64 0.64 0.65 0.60 0.43 0.29 0.43 0.49 0.40 0.32 0.29 0.27 0.27 0.35 0.34 0.39 0.38 0.38 0.34 0.29 0.29 0.23 0.21 0.25 0.40 0.44 0.49 0.55 0.41 0.29 0.16 0.20 0.27 0.29 0.33 0.38 0.38 0.32 0.32
0.68 0.69 0.67 0.67 0.68 0.69 0.68 0.65 0.65 0.65 0.65 0.59 0.42 0.36 0.37 0.29 0.31 0.32 0.35 0.31 0.28 0.29 0.37 0.38 0.35 0.36 0.34 0.28 0.27 0.25 0.23 0.19 0.27 0.39 0.43 0.54 0.37 0.37 0.32 0.30 0.29 0.31 0.32 0.35 0.34 0.36 0.32
0.68 0.69 0.69 0.70 0.71 0.72 0.72 0.71 0.67 0.65 0.67 0.53 0.36 0.33 0.42 0.37 0.39 0.36 0.35 0.31 0.30 0.35 0.35 0.34 0.33 0.35 0.35 0.30 0.30 0.26 0.27 0.26 0.26 0.41 0.42 0.52 0.38 0.41 0.29 0.32 0.32 0.30 0.31 0.33 0.35 0.38 0.38
0.63 0.63 0.62 0.62 0.63 0.66 0.68 0.70 0.74 0.73 0.72 0.53 0.52 0.53 0.45 0.38 0.36 0.35 0.32 0.34 0.35 0.39 0.40 0.40 0.39 0.36 0.34 0.34 0.39 0.38 0.37 0.30 0.31 0.30 0.40 0.47 0.44 0.43 0.30 0.34 0.32 0.27 0.29 0.33 0.36 0.39 0.39
0.53 0.51 0.50 0.50 0.51 0.54 0.59 0.65 0.67 0.74 0.72 0.63 0.57 0.52 0.43 0.33 0.36 0.32 0.36 0.39 0.39 0.39 0.37 0.40 0.42 0.38 0.39 0.46 0.45 0.42 0.37 0.31 0.30 0.32 0.41 0.40 0.40 0.43 0.35 0.36 0.23 0.32 0.42 0.43 0.41 0.42 0.43
0.49 0.52 0.52 0.50 0.50 0.50 0.51 0.52 0.61 0.67 0.70 0.67 0.65 0.54 0.45 0.34 0.39 0.38 0.39 0.40 0.42 0.44 0.41 0.41 0.43 0.45 0.49 0.44 0.33 0.28 0.26 0.25 0.23 0.31 0.38 0.49 0.43 0.39 0.32 0.32 0.35 0.36 0.43 0.43 0.40 0.37 0.48
0.57 0.60 0.60 0.60 0.60 0.58 0.53 0.51 0.54 0.58 0.65 0.65 0.62 0.67 0.53 0.39 0.35 0.45 0.41 0.42 0.37 0.37 0.40 0.40 0.47 0.52 0.48 0.39 0.32 0.22 0.19 0.21 0.19 0.26 0.33 0.38 0.46 0.37 0.37 0.26 0.26 0.36 0.45 0.50 0.50 0.32 0.48
0.64 0.64 0.65 0.64 0.65 0.65 0.63 0.60 0.57 0.56 0.58 0.60 0.59 0.65 0.54 0.41 0.45 0.47 0.39 0.39 0.44 0.41 0.37 0.40 0.42 0.43 0.47 0.36 0.27 0.24 0.21 0.26 0.19 0.25 0.27 0.32 0.34 0.31 0.32 0.28 0.31 0.41 0.47 0.55 0.33 0.33 0.53
0.68 0.67 0.68 0.66 0.65 0.67 0.66 0.66 0.65 0.63 0.61 0.61 0.55 0.65 0.54 0.44 0.49 0.51 0.49 0.44 0.44 0.42 0.34 0.39 0.39 0.41 0.38 0.31 0.29 0.28 0.25 0.25 0.21 0.25 0.31 0.32 0.30 0.31 0.34 0.28 0.23 0.44 0.46 0.42 0.52 0.55 0.56
0.65 0.67 0.67 0.68 0.66 0.65 0.65 0.67 0.67 0.67 0.65 0.64 0.51 0.63 0.65 0.50 0.49 0.61 0.61 0.59 0.50 0.47 0.40 0.42 0.37 0.38 0.38 0.32 0.32 0.32 0.26 0.29 0.25 0.17 0.28 0.25 0.33 0.31 0.32 0.30 0.43 0.49 0.53 0.59 0.62 0.63 0.59
Wind_Speed
35 35 36 36 36 35 35 35 35 35 36 36 36 35 35 35 35 35 34 34 34 33 33 32 31 29 26 24 25 24 22 20 18 17 17 17 16 16 16 15 16 17 17 19 19 19 19
37 37 37 37 37 37 36 37 37 37 37 37 37 36 36 35 35 35 35 35 35 35 34 33 31 29 27 26 24 24 22 23 24 22 20 19 19 19 17 16 16 16 16 19 19 19 19
37 38 38 38 37 38 38 38 38 38 38 37 37 37 36 36 35 36 36 36 36 37 35 33 32 30 31 29 25 26 26 25 23 23 24 23 21 19 16 16 18 18 19 19 18 17 18
39 38 38 38 38 38 38 38 38 39 39 38 38 37 37 36 36 36 35 36 36 36 37 36 33 31 32 28 30 30 30 28 28 26 24 23 21 20 19 18 16 15 15 14 12 10 11
39 39 39 39 39 38 39 38 38 38 37 37 37 37 36 37 36 36 35 35 36 36 35 34 30 30 30 25 25 24 24 24 24 26 24 22 21 20 18 16 16 15 16 15 16 12 11
39 39 39 39 40 39 39 39 38 37 37 36 36 35 36 35 34 33 34 34 32 28 26 27 29 27 29 24 22 21 21 21 21 22 22 23 21 20 18 16 17 15 15 14 15 13 13
41 41 41 40 40 39 39 38 37 36 36 35 36 35 34 32 31 31 29 27 25 27 27 29 27 27 26 22 20 19 21 19 20 21 23 23 22 23 22 21 18 15 15 14 14 14 16
43 42 42 42 41 40 39 38 37 36 35 34 34 32 34 32 31 29 27 24 23 27 29 31 35 36 37 28 26 23 22 21 21 21 21 22 28 25 20 21 21 20 18 20 19 18 16
45 45 44 43 42 41 40 38 37 36 35 34 32 31 30 30 29 27 25 24 23 25 28 28 28 31 31 33 33 31 28 24 23 22 23 28 22 24 23 21 21 23 21 19 19 15 17
48 47 46 45 43 42 41 39 38 36 35 33 32 30 29 27 25 23 23 22 22 22 23 23 22 23 22 25 29 31 33 30 25 25 23 26 28 21 24 25 22 21 20 20 19 14 16
49 50 48 47 45 44 42 40 38 37 35 33 31 30 29 27 24 22 21 21 21 18 18 16 16 17 18 20 20 19 26 29 33 26 22 24 20 26 24 21 20 21 17 19 18 17 16
49 49 49 48 47 45 43 41 39 37 35 34 32 31 29 27 26 25 23 22 19 16 21 16 15 14 15 18 18 18 19 23 27 28 28 27 23 21 24 23 21 14 16 17 16 16 17
47 47 47 47 46 45 43 42 40 38 36 34 33 31 30 28 24 23 21 19 17 19 16 16 16 16 17 16 17 18 17 22 22 24 31 24 27 24 21 20 23 23 16 14 14 15 17
44 44 44 45 45 44 43 41 40 38 37 35 34 33 32 31 27 23 21 20 23 19 21 19 18 18 16 16 17 18 18 20 24 22 20 28 26 27 25 24 21 23 23 17 16 15 16
42 41 41 41 41 42 42 41 40 39 37 36 34 34 33 32 29 25 23 26 23 21 22 18 20 18 18 17 18 16 18 22 22 24 23 22 25 24 26 27 27 21 27 23 14 14 14
39 37 37 37 38 39 41 41 40 39 37 36 34 34 34 33 31 28 27 32 28 25 21 20 21 19 19 20 18 17 18 16 18 24 26 23 23 22 20 23 30 27 22 17 20 17 17
38 37 37 36 37 37 38 39 39 39 37 36 35 33 34 34 32 31 33 30 31 31 24 22 21 22 21 20 20 20 19 18 14 17 20 24 22 22 20 23 23 24 31 22 20 20 19
34 35 36 37 37 38 38 39 40 40 37 37 34 34 34 33 33 33 36 32 30 23 26 27 22 22 22 22 21 21 21 21 18 18 18 21 25 26 27 20 20 27 28 29 23 20 19
34 34 34 36 38 40 41 41 41 40 39 34 34 33 35 34 34 36 32 35 33 26 25 21 23 23 21 22 21 22 22 21 20 17 16 16 21 25 25 28 25 24 24 27 25 22 23
34 35 34 34 32 32 34 36 37 37 38 37 28 30 31 36 35 37 33 34 31 30 30 22 20 19 19 19 20 21 20 21 20 23 20 19 23 26 28 23 22 24 25 24 25 24 24
35 34 33 31 30 29 28 29 31 34 36 37 33 28 31 32 33 33 33 28 32 28 26 25 24 24 20 20 20 21 21 23 25 23 19 18 22 27 30 29 31 22 23 25 27 27 28
33 32 31 31 30 29 28 27 28 32 35 37 31 29 27 26 32 30 30 31 30 28 24 22 23 19 24 25 26 24 19 16 20 19 16 17 19 22 28 28 27 29 30 29 27 26 27
33 32 32 31 30 29 28 29 32 34 37 34 33 31 27 26 27 30 31 30 28 26 25 25 23 20 19 21 21 23 24 27 28 26 21 14 10 9 17 21 21 25 31 27 25 27 25
35 36 36 35 35 34 34 33 34 36 41 38 34 33 31 28 32 32 29 31 28 28 24 22 24 21 19 16 17 18 20 21 24 28 26 21 15 9 14 14 17 21 21 25 27 27 29
33 34 35 36 37 37 38 37 38 40 41 41 34 37 33 33 31 32 32 30 30 28 28 25 21 22 18 15 15 15 13 14 20 24 27 23 18 10 6 13 16 15 15 16 17 21 23
30 30 30 31 31 34 37 39 40 42 43 43 42 34 35 32 34 30 30 30 27 27 24 26 22 18 18 16 14 14 11 10 10 15 23 25 24 16 11 7 10 13 14 16 16 18 17
33 33 33 34 34 34 36 37 39 42 44 43 42 45 32 32 33 33 29 29 26 26 23 19 21 20 19 18 18 15 14 13 10 9 11 17 20 21 13 11 13 15 12 13 15 16 13
31 33 34 35 35 35 37 39 40 40 42 43 41 45 42 31 28 31 32 31 27 28 22 19 17 19 19 19 17 15 12 13 13 12 8 13 15 16 15 13 14 12 12 11 15 15 15
31 31 31 32 33 33 34 38 41 42 40 41 36 41 44 36 28 29 29 29 33 32 25 23 22 18 19 17 20 16 15 11 11 10 13 12 15 13 16 15 15 13 14 12 12 14 13
Wind_Direction
280 280 279 279 279 279 279 279 278 278 278 278 277 277 277 276 276 276 276 275 275 274 274 275 274 273 268 262 255 255 257 255 253 249 249 252 254 256 260 265 264 268 275 276 275 280 280
280 279 279 279 279 278 278 278 277 277 277 277 276 275 275 276 276 275 275 274 273 272 272 272 271 269 261 260 256 254 254 254 252 250 250 252 255 255 262 261 261 272 277 279 278 278 279
280 279 279 279 279 279 279 278 278 277 276 275 275 274 273 274 274 275 275 274 272 271 270 269 268 264 257 255 255 255 256 254 253 251 252 251 253 253 259 263 267 272 282 283 276 275 275
279 279 279 279 279 278 279 278 277 276 275 274 273 272 272 272 273 274 274 274 274 270 267 266 264 260 257 260 258 257 254 254 250 248 247 248 249 252 252 259 270 274 278 284 281 276 274
278 278 278 278 278 279 278 277 276 275 274 273 272 271 271 272 271 272 274 275 275 271 266 259 258 255 261 259 253 250 245 247 247 240 241 242 245 247 250 250 266 270 269 273 286 267 270
278 278 278 278 278 277 277 277 275 274 273 272 271 272 272 273 273 273 274 276 271 266 261 253 254 256 254 252 250 248 245 247 244 235 236 238 244 244 245 244 249 256 264 271 268 267 273
279 278 278 277 276 275 275 274 273 273 271 272 271 271 272 272 273 272 276 273 266 262 259 252 254 253 255 254 253 242 240 244 240 236 234 237 240 239 238 240 246 254 259 268 267 264 278
278 277 276 275 274 274 273 273 272 271 270 271 270 271 268 270 271 268 269 266 266 265 265 257 255 254 254 255 250 246 243 239 238 238 234 238 240 243 240 239 243 251 259 267 274 272 260
276 275 274 273 272 272 271 271 270 269 269 268 268 268 268 265 267 265 261 259 267 271 266 262 256 256 251 245 246 245 242 241 239 237 236 237 245 238 237 239 241 247 248 257 258 273 271
274 274 272 271 269 269 268 268 267 266 266 266 266 265 263 263 263 260 258 256 270 268 265 262 257 256 250 242 249 243 238 236 240 236 237 244 240 243 239 239 238 247 247 251 257 262 264
274 272 270 269 267 266 266 265 264 264 263 263 262 261 259 255 257 257 256 258 270 263 265 260 251 251 248 239 252 248 236 236 237 235 234 241 240 236 238 240 235 249 240 244 250 254 268
275 272 269 267 265 263 262 261 261 261 260 260 259 257 255 254 254 252 253 258 258 256 251 262 251 250 252 250 252 249 243 236 239 237 240 241 242 236 239 236 229 246 246 251 251 254 259
276 273 269 265 263 260 259 258 258 257 257 256 255 254 250 249 251 252 248 247 250 245 262 258 257 260 264 253 252 245 241 232 234 234 236 240 241 241 239 237 236 238 239 251 252 249 257
277 274 269 265 262 259 257 256 255 254 255 253 252 251 247 245 244 245 243 241 243 250 253 257 261 267 258 260 253 256 243 241 242 242 242 236 245 233 235 233 235 234 227 233 238 247 256
278 275 270 265 261 258 255 254 253 252 252 251 249 248 245 242 238 238 238 239 247 247 257 261 261 259 263 260 257 260 253 244 244 235 235 237 242 243 236 233 227 230 230 231 243 255 259
275 273 270 266 262 258 255 252 251 250 250 248 246 245 242 236 233 235 239 242 245 251 260 262 258 259 260 261 261 257 254 253 250 242 236 240 246 241 242 229 229 227 227 226 236 238 248
273 272 269 266 263 259 255 251 249 249 248 244 242 243 240 231 229 233 239 242 246 251 257 259 256 256 254 254 256 252 248 248 255 255 245 240 241 242 233 230 223 223 229 231 230 237 242
275 272 269 266 263 259 257 253 249 247 244 238 237 238 232 224 229 237 239 240 244 250 250 250 254 249 248 250 250 247 243 247 263 255 252 243 238 239 239 233 229 228 227 226 231 235 244
275 273 272 269 265 261 257 253 248 243 235 231 233 235 230 224 233 235 240 240 243 245 242 245 245 243 248 247 248 245 244 241 248 253 248 255 243 240 243 242 233 228 228 227 230 235 239
276 274 272 270 267 262 255 248 242 235 226 223 228 228 229 228 236 233 235 238 238 236 240 240 245 242 243 243 241 247 252 248 246 250 248 256 241 238 235 233 227 229 227 228 228 233 237
275 273 270 267 263 258 252 244 235 226 219 216 223 230 227 228 228 229 228 234 230 228 229 230 240 240 240 242 249 250 254 260 248 239 239 246 252 245 240 234 236 235 229 228 233 236 238
274 271 267 263 260 255 246 238 228 219 213 216 220 222 223 228 221 221 223 226 221 222 222 229 235 239 238 240 242 252 248 255 239 235 242 243 250 256 238 229 230 233 235 236 236 240 244
274 270 266 262 256 250 243 236 226 218 212 216 218 220 221 222 218 221 224 221 224 224 229 230 230 237 239 242 240 246 254 256 243 239 237 239 246 263 231 224 223 238 233 237 242 240 242
275 270 265 260 256 250 243 235 228 220 215 218 221 220 225 228 224 224 224 224 226 223 226 229 233 233 241 241 245 251 255 250 237 233 232 241 250 270 238 218 224 239 234 237 241 246 247
276 271 265 259 254 249 242 236 229 222 218 217 220 222 225 230 228 226 225 225 227 229 229 231 234 233 239 240 236 245 253 246 239 231 227 227 226 254 267 233 240 240 231 232 233 252 256
276 273 266 259 254 247 240 234 230 225 221 220 220 222 225 228 227 223 222 222 224 224 227 231 231 228 227 232 232 235 240 243 238 230 233 226 227 240 246 234 244 239 249 246 243 260 271
279 271 266 260 253 247 240 234 229 225 222 220 221 219 224 228 226 220 224 221 221 219 227 225 227 228 225 226 228 231 235 241 247 248 227 222 228 231 239 252 246 247 262 253 235 255 261
283 275 268 258 251 246 239 233 227 223 220 218 220 217 217 223 224 224 223 220 219 218 223 222 216 220 217 221 223 226 230 235 238 247 238 227 220 231 237 243 254 256 252 244 254 255 264
287 280 267 256 250 241 235 229 223 219 216 213 217 214 214 220 223 222 223 224 219 219 221 217 220 215 216 220 224 229 232 237 235 245 238 241 232 236 231 241 250 258 257 257 254 258 260